Regional Weather Roundup
Issued by NWS Albany, NY

Home | Current Version | Previous Version | Text Only | Print | Product List | Glossary On
Versions: 1 2 3 4 5 6 7 8 9 10 11 12 13 14 15 16 17 18 19 20 21 22 23 24 25 26 27 28 29 30 31 32 33 34 35 36 37 38 39 40 41 42 43 44 45 46 47 48 49 50
000
ASUS41 KALY 290610
RWRALY

NEW YORK STATE HOURLY WEATHER ROUNDUP
NATIONAL WEATHER SERVICE ALBANY NY
100 AM EST MON DEC 29 2014

NOTE: "FAIR" INDICATES FEW OR NO CLOUDS BELOW 12,000 FEET WITH NO
SIGNIFICANT WEATHER AND/OR NO OBSTRUCTIONS TO VISIBILITY.

NYZ032-033-038>043-046>054-057>066-NYZ062>081-290700-
EAST


CITY           SKY/WX    TMP DP  RH WIND       PRES   REMARKS
ALBANY         MOCLDY    35  25  66 W6        30.07R WCI  30
GLENS FALLS    CLOUDY    32  21  64 W5        30.03F WCI  27
POUGHKEEPSIE   CLOUDY    38  25  59 NE3       30.08R
NEWBURGH       PTCLDY    36  27  69 NW8       30.08R WCI  29
MONTGOMERY     CLOUDY    37  23  56 NW7       30.07R WCI  32
WHITE PLAINS   CLOUDY    38  25  59 NW5       30.06R WCI  34
ISLIP          CLOUDY    42  30  62 NW8       30.05R
NEW YORK CITY  CLOUDY    41  28  60 NW15      30.09R
CENTRAL PARK   CLOUDY    42  25  50 NW12G21   30.11R
$$

NYZ005>009-017-018-044>046-055-056-290700-
CENTRAL


CITY           SKY/WX    TMP DP  RH WIND       PRES   REMARKS
FULTON         PTCLDY    35  21  56 W9        30.08F WCI  28
SYRACUSE       FLURRIES  33  28  81 W14       30.09R WCI  23
ROME           PTCLDY    31  26  82 NW6       30.09R WCI  25
ELMIRA         MOCLDY    31  26  82 CALM      30.10R
BINGHAMTON     MOCLDY    28  24  85 W6        30.05R WCI  22
MONTICELLO     MOCLDY    30  23  74 W7        30.06R WCI  23
$$

NYZ026>034-041>043-290700-
NORTH


CITY           SKY/WX    TMP DP  RH WIND       PRES   REMARKS
WATERTOWN      PTCLDY    34  22  61 W10       30.05S WCI  26
FORT DRUM      NOT AVBL
MASSENA        CLOUDY    32  20  61 W7        30.01S WCI  26
SARANAC LAKE   CLOUDY    27  20  75 SW9       29.93S WCI  18
PLATTSBURGH    CLOUDY    32  21  64 CALM      29.99R
$$

NYZ001>004-010>016-019>021-290700-
WEST


CITY           SKY/WX    TMP DP  RH WIND       PRES   REMARKS
NIAGARA FALLS  CLEAR     27  21  78 W9        30.12S WCI  18
BUFFALO        CLEAR     28  21  75 SW7       30.12S WCI  21
DUNKIRK        PTCLDY    32  23  69 W5        30.15S WCI  27
JAMESTOWN      CLEAR     27  19  74 NW6       30.09F WCI  20
WELLSVILLE     CLOUDY    30  22  72 NW7       30.06S WCI  23
ROCHESTER      PTCLDY    29  22  75 W7        30.11S WCI  22
PENN YAN       CLEAR     32  21  64 W9        30.11R WCI  24
$$

             KEY
       WCI = WIND CHILL INDEX
       VSB = VISIBILITY
       HX  = HEAT INDEX
$$



USA.gov is the U.S. government's official web portal to all federal, state and local government web resources and services.